This demonstration page uses our WeatherBlox Daily Observations layout. Learn more.

Left ArrowRight Arrow

Hourly Observations for June 20, 2019

Temp ( °F °C ) Dew Point ( °F °C ) Humidity (%) Winds ( mph kmh ) Pressure ( in mb ) Visibility ( mi km ) Precip ( " mm )
12:56 am 00:56 Mostly Clear 68 20 63 17 83 83 ESE 3 6 29.65 1004 10 16 0.00 0.00
1:56 am 01:56 Clear 68 20 63 17 83 83 SE 3 6 29.66 1004 10 16 0.00 0.00
2:56 am 02:56 Clear 66 19 63 17 88 88 E 3 6 29.66 1004 7 11 0.00 0.00
3:56 am 03:56 Clear 66 19 63 17 88 88 ESE 3 6 29.65 1004 10 16 0.00 0.00
4:56 am 04:56 Mostly Clear 64 18 61 16 88 88 Calm 29.66 1005 10 16 0.00 0.00
5:56 am 05:56 Mostly Cloudy 64 18 61 16 88 88 Calm 29.69 1006 10 16 0.00 0.00
6:56 am 06:56 Mostly Cloudy 64 18 63 17 94 94 Calm 29.73 1007 7 11 0.00 0.00
7:28 am 07:28 Mostly Cloudy with Light Rain 64 18 63 17 94 94 Calm 29.72 1007 6 10 0.00 0.00
7:56 am 07:56 Cloudy with Light Rain 66 19 63 17 88 88 Calm 29.68 1005 4 6 0.00 0.00
8:23 am 08:23 Cloudy with Light Showers 66 19 63 17 88 88 VRB 3 6 29.71 1006 6 10 0.00 0.00
8:34 am 08:34 Cloudy with Mist and Fog 66 19 63 17 88 88 SSE 8 13 29.72 1006 6 10 0.00 0.00
8:56 am 08:56 Mostly Cloudy 68 20 63 17 83 83 SSW 5 7 29.73 1007 10 16 0.00 0.00
9:56 am 09:56 Mostly Cloudy 72 22 63 17 73 73 S 8 13 29.69 1005 10 16 0.00 0.00
10:56 am 10:56 Mostly Cloudy 73 23 63 17 69 69 SSW 13 20 29.68 1005 10 16 0.00 0.00
11:56 am 11:56 Mostly Cloudy 73 23 63 17 69 69 SE 9 15 29.69 1005 10 16 0.00 0.00
12:56 pm 12:56 Mostly Cloudy 77 25 64 18 65 65 ESE 7 11 29.70 1006 10 16 0.00 0.00
1:56 pm 13:56 Mostly Cloudy 81 27 64 18 58 58 SE 8 13 29.68 1005 10 16 0.00 0.00
2:56 pm 14:56 Mostly Cloudy 81 27 63 17 54 54 SE 9 15 29.69 1005 10 16 0.00 0.00
3:56 pm 15:56 Partly Cloudy 81 27 63 17 54 54 SE 9 15 29.68 1005 10 16 0.00 0.00
4:56 pm 16:56 Partly Cloudy 82 28 63 17 51 51 SE 9 15 29.67 1005 10 16 0.00 0.00
5:56 pm 17:56 Partly Cloudy 82 28 63 17 51 51 SSE 10 17 29.67 1005 10 16 0.00 0.00
6:56 pm 18:56 Partly Cloudy 82 28 63 17 51 51 SE 10 17 29.66 1004 10 16 0.00 0.00
7:56 pm 19:56 Partly Cloudy 82 28 64 18 55 55 SE 8 13 29.65 1004 10 16 0.00 0.00
8:56 pm 20:56 undefined N/A N/A N/A ESE 9 15 N/A N/A 0.00 0.00
9:56 pm 21:56 Partly Cloudy N/A N/A N/A ESE 12 19 29.68 1005 2 3 0.00 0.00
10:56 pm 22:56 Partly Cloudy 77 25 64 18 65 65 SE 9 15 29.70 1006 10 16 0.00 0.00
11:56 pm 23:56 Partly Cloudy 75 24 64 18 69 69 ESE 9 15 29.70 1006 10 16 0.00 0.00

Powered by AerisWeather